Location: Caltech
(34.1382°N, 118.1253°W)
Time: 06:21:53
(UTC-07:00)

CZ-4B DEB - Visible Passes

Search period start: 01 November 2014 00:00
Search period end: 10 November 2014 23:00
Orbit: 844 x 863 km, 98.8° (Epoch: 30 October)

Date Brightness Start Highest point End Pass type
(mag) Time Alt. Az. Time Alt. Az. Time Alt. Az.
01 Nov 6.5 04:23:07 10° NNE 04:23:58 15° NNE 04:23:58 15° NNE visible
02 Nov 6.7 03:12:11 10° NNE 03:12:42 13° NNE 03:12:42 13° NNE visible
03 Nov 6.9 03:01:19 10° NNE 03:01:26 11° NNE 03:01:26 11° NNE visible
03 Nov 6.3 04:43:27 10° NNW 04:43:29 10° NNW 04:43:29 10° NNW visible
04 Nov 6.4 04:32:00 10° NNW 04:32:13 11° NNW 04:32:13 11° NNW visible
05 Nov 6.4 04:20:42 10° NNW 04:20:56 11° NNW 04:20:56 11° NNW visible
06 Nov 6.5 04:09:28 10° N 04:09:40 11° N 04:09:40 11° N visible
07 Nov 6.6 03:58:19 10° N 03:58:24 10° N 03:58:24 10° N visible
